| time (UTC) | temp F | wind direction | speed knots | gust knots | rain 1hr in | rain 24hr in | rain mn in | humidity % | barometer mb |
| 20260507191902 | 61 | 170 | 4.3 | 0.0 | 0.00 | 0.00 | 0.00 | 59 | 1013.0 |
| 20260507190901 | 61 | 170 | 4.3 | 0.0 | 0.00 | 0.00 | 0.00 | 60 | 1013.0 |
| 20260507185900 | 61 | 130 | 7.8 | 0.0 | 0.00 | 0.00 | 0.00 | 61 | 1013.0 |
| 20260507184900 | 61 | 130 | 7.8 | 0.0 | 0.00 | 0.00 | 0.00 | 61 | 1013.0 |
| 20260507183859 | 61 | 130 | 7.8 | 0.0 | 0.00 | 0.00 | 0.00 | 61 | 1013.0 |
| 20260507182858 | 61 | 130 | 7.8 | 0.0 | 0.00 | 0.00 | 0.00 | 61 | 1014.0 |
| 20260507181858 | 61 | 130 | 7.8 | 0.0 | 0.00 | 0.00 | 0.00 | 61 | 1014.0 |
| 20260507180857 | 61 | 130 | 7.8 | 0.0 | 0.00 | 0.00 | 0.00 | 61 | 1015.0 |
| 20260507175857 | 61 | 120 | 7.0 | 0.0 | 0.00 | 0.00 | 0.00 | 61 | 1015.0 |
| 20260507174856 | 61 | 120 | 7.0 | 0.0 | 0.00 | 0.00 | 0.00 | 61 | 1015.0 |
| 20260507173855 | 61 | 120 | 7.0 | 0.0 | 0.00 | 0.00 | 0.00 | 61 | 1015.0 |
| 20260507172855 | 62 | 120 | 7.0 | 0.0 | 0.00 | 0.00 | 0.00 | 61 | 1015.0 |
| 20260507171854 | 62 | 120 | 7.0 | 0.0 | 0.00 | 0.00 | 0.00 | 61 | 1015.0 |
| 20260507170854 | 62 | 90 | 7.8 | 0.0 | 0.00 | 0.00 | 0.00 | 61 | 1015.0 |
| 20260507165853 | 62 | 90 | 7.8 | 0.0 | 0.00 | 0.00 | 0.00 | 61 | 1015.0 |
| 20260507164853 | 62 | 90 | 7.8 | 0.0 | 0.00 | 0.00 | 0.00 | 61 | 1015.0 |
| 20260507163852 | 62 | 90 | 7.8 | 0.0 | 0.00 | 0.00 | 0.00 | 61 | 1015.0 |
| 20260507162852 | 62 | 90 | 7.8 | 0.0 | 0.00 | 0.00 | 0.00 | 62 | 1016.0 |
| 20260507161851 | 62 | 90 | 7.8 | 0.0 | 0.00 | 0.00 | 0.00 | 63 | 1016.0 |
| 20260507160850 | 62 | 90 | 7.8 | 0.0 | 0.00 | 0.00 | 0.00 | 63 | 1016.0 |
| 20260507155850 | 63 | 210 | 3.5 | 0.0 | 0.00 | 0.00 | 0.00 | 62 | 1016.0 |
| 20260507154849 | 63 | 210 | 3.5 | 0.0 | 0.00 | 0.00 | 0.00 | 62 | 1016.0 |
| 20260507153849 | 64 | 210 | 3.5 | 0.0 | 0.00 | 0.00 | 0.00 | 68 | 1016.0 |
| 20260507152848 | 60 | 210 | 3.5 | 0.0 | 0.00 | 0.00 | 0.00 | 70 | 1018.0 |
| 20260507151848 | 60 | 210 | 3.5 | 0.0 | 0.00 | 0.00 | 0.00 | 71 | 1018.0 |
| 20260507150847 | 61 | 70 | 4.3 | 0.0 | 0.00 | 0.00 | 0.00 | 74 | 1017.0 |
| 20260507145847 | 58 | 70 | 5.2 | 0.0 | 0.00 | 0.00 | 0.00 | 76 | 1017.0 |
| 20260507144846 | 59 | 70 | 5.2 | 0.0 | 0.00 | 0.00 | 0.00 | 77 | 1017.0 |
| 20260507143845 | 60 | 70 | 5.2 | 0.0 | 0.00 | 0.00 | 0.00 | 82 | 1017.0 |
| 20260507142845 | 56 | 70 | 5.2 | 0.0 | 0.00 | 0.00 | 0.00 | 82 | 1018.0 |
| 20260507141844 | 56 | 70 | 5.2 | 0.0 | 0.00 | 0.00 | 0.00 | 82 | 1018.0 |
| 20260507140843 | 56 | 70 | 5.2 | 0.0 | 0.00 | 0.00 | 0.00 | 84 | 1018.0 |
| 20260507135843 | 56 | 70 | 7.0 | 0.0 | 0.00 | 0.00 | 0.00 | 87 | 1018.0 |
| 20260507134843 | 56 | 70 | 7.0 | 0.0 | 0.00 | 0.00 | 0.00 | 87 | 1018.0 |
| 20260507133842 | 56 | 70 | 7.0 | 0.0 | 0.00 | 0.00 | 0.00 | 88 | 1018.0 |
| 20260507132841 | 56 | 0 | 3.5 | 0.0 | 0.00 | 0.00 | 0.00 | 94 | 1019.0 |
| 20260507131841 | 54 | 0 | 3.5 | 0.0 | 0.00 | 0.00 | 0.00 | 94 | 1019.0 |
| 20260507130841 | 54 | 0 | 3.5 | 0.0 | 0.00 | 0.00 | 0.00 | 94 | 1019.0 |
| 20260507125840 | 55 | 50 | 3.5 | 0.0 | 0.00 | 0.00 | 0.00 | 97 | 1019.0 |
| 20260507124839 | 55 | 50 | 3.5 | 0.0 | 0.00 | 0.00 | 0.00 | 97 | 1019.0 |
| 20260507123839 | 51 | 70 | 2.6 | 0.0 | 0.00 | 0.00 | 0.00 | 97 | 1019.0 |
| 20260507122838 | 48 | 70 | 2.6 | 0.0 | 0.00 | 0.00 | 0.00 | 97 | 1020.0 |
| 20260507121838 | 48 | 70 | 2.6 | 0.0 | 0.00 | 0.00 | 0.00 | 97 | 1020.0 |
| 20260507120837 | 48 | 70 | 2.6 | 0.0 | 0.00 | 0.00 | 0.00 | 98 | 1020.0 |
| 20260507115837 | 48 | 0 | 2.6 | 0.0 | 0.00 | 0.00 | 0.00 | 98 | 1020.0 |
| 20260507114836 | 48 | 0 | 2.6 | 0.0 | 0.00 | 0.00 | 0.00 | 98 | 1020.0 |
| 20260507113836 | 48 | 0 | 2.6 | 0.0 | 0.00 | 0.00 | 0.00 | 97 | 1020.0 |
| 20260507112835 | 48 | 0 | 2.6 | 0.0 | 0.00 | 0.00 | 0.00 | 97 | 1020.0 |
| 20260507111835 | 48 | 0 | 2.6 | 0.0 | 0.00 | 0.00 | 0.00 | 97 | 1020.0 |
| 20260507110834 | 48 | 70 | 3.5 | 0.0 | 0.00 | 0.00 | 0.00 | 96 | 1020.0 |
| 20260507105833 | 48 | 70 | 3.5 | 0.0 | 0.00 | 0.00 | 0.00 | 96 | 1021.0 |
| 20260507104833 | 48 | 70 | 3.5 | 0.0 | 0.00 | 0.00 | 0.00 | 95 | 1021.0 |
| 20260507103832 | 48 | 70 | 3.5 | 0.0 | 0.00 | 0.00 | 0.00 | 95 | 1021.0 |
| 20260507102832 | 48 | 80 | 2.6 | 0.0 | 0.00 | 0.00 | 0.00 | 94 | 1020.0 |
| 20260507101831 | 48 | 80 | 2.6 | 0.0 | 0.00 | 0.00 | 0.00 | 94 | 1020.0 |
| 20260507100831 | 48 | 80 | 2.6 | 0.0 | 0.00 | 0.00 | 0.00 | 92 | 1020.0 |
| 20260507095830 | 48 | 102 | 2.6 | 1.7 | 0.00 | 0.00 | 0.00 | 91 | 1020.0 |
| 20260507094829 | 48 | 102 | 2.6 | 1.7 | 0.00 | 0.00 | 0.00 | 91 | 1020.0 |
| 20260507093829 | 48 | 102 | 2.6 | 1.7 | 0.00 | 0.00 | 0.00 | 91 | 1020.0 |
| 20260507092828 | 48 | 101 | 2.6 | 1.7 | 0.00 | 0.00 | 0.00 | 91 | 1020.0 |
| 20260507091828 | 51 | 0 | 2.6 | 0.0 | 0.00 | 0.00 | 0.00 | 94 | 1020.0 |
| 20260507090827 | 51 | 0 | 2.6 | 0.0 | 0.00 | 0.00 | 0.00 | 94 | 1020.0 |
| 20260507085827 | 50 | 350 | 2.6 | 0.0 | 0.00 | 0.00 | 0.00 | 93 | 1020.0 |
| 20260507084826 | 50 | 350 | 2.6 | 0.0 | 0.00 | 0.00 | 0.00 | 93 | 1020.0 |
| 20260507083826 | 50 | 350 | 2.6 | 0.0 | 0.00 | 0.00 | 0.00 | 92 | 1020.0 |
| 20260507082825 | 49 | 350 | 2.6 | 0.0 | 0.00 | 0.00 | 0.00 | 92 | 1020.0 |
| 20260507081824 | 49 | 350 | 2.6 | 0.0 | 0.00 | 0.00 | 0.00 | 92 | 1020.0 |
| 20260507080824 | 49 | 0 | 1.7 | 0.0 | 0.00 | 0.00 | 0.00 | 92 | 1021.0 |
| 20260507075823 | 49 | 0 | 1.7 | 0.0 | 0.00 | 0.00 | 0.00 | 92 | 1021.0 |
| 20260507074823 | 49 | 0 | 1.7 | 0.0 | 0.00 | 0.00 | 0.00 | 92 | 1021.0 |
| 20260507073822 | 49 | 0 | 1.7 | 0.0 | 0.00 | 0.00 | 0.00 | 92 | 1021.0 |
| 20260507072822 | 49 | 0 | 1.7 | 0.0 | 0.00 | 0.00 | 0.00 | 92 | 1021.0 |
| 20260507071821 | 49 | 0 | 1.7 | 0.0 | 0.00 | 0.00 | 0.00 | 92 | 1021.0 |
| 20260507070821 | 49 | 0 | 1.7 | 0.0 | 0.00 | 0.00 | 0.00 | 92 | 1021.0 |
| 20260507065820 | 50 | 60 | 3.5 | 0.0 | 0.00 | 0.00 | 0.00 | 92 | 1021.0 |
| 20260507064819 | 51 | 60 | 3.5 | 0.0 | 0.00 | 0.00 | 0.00 | 94 | 1021.0 |
| 20260507063819 | 51 | 60 | 3.5 | 0.0 | 0.00 | 0.00 | 0.00 | 94 | 1021.0 |
| 20260507062818 | 51 | 60 | 3.5 | 0.0 | 0.00 | 0.00 | 0.00 | 90 | 1021.0 |
| 20260507061818 | 51 | 60 | 3.5 | 0.0 | 0.00 | 0.00 | 0.00 | 90 | 1021.0 |
| 20260507060817 | 50 | 60 | 3.5 | 0.0 | 0.00 | 0.00 | 0.00 | 89 | 1021.0 |
| 20260507055817 | 50 | 40 | 1.7 | 0.0 | 0.00 | 0.00 | 0.00 | 89 | 1021.0 |
| 20260507054816 | 50 | 40 | 1.7 | 0.0 | 0.00 | 0.00 | 0.00 | 88 | 1021.0 |
| 20260507053815 | 50 | 40 | 1.7 | 0.0 | 0.00 | 0.00 | 0.00 | 88 | 1022.0 |
| 20260507052815 | 50 | 40 | 1.7 | 0.0 | 0.00 | 0.00 | 0.00 | 87 | 1022.0 |
| 20260507051814 | 50 | 40 | 1.7 | 0.0 | 0.00 | 0.00 | 0.00 | 87 | 1022.0 |
| 20260507050814 | 50 | 40 | 1.7 | 0.0 | 0.00 | 0.00 | 0.00 | 86 | 1022.0 |
| 20260507045813 | 50 | 20 | 2.6 | 0.0 | 0.00 | 0.00 | 0.00 | 85 | 1022.0 |
| 20260507044812 | 50 | 20 | 2.6 | 0.0 | 0.00 | 0.00 | 0.00 | 84 | 1022.0 |
| 20260507043812 | 51 | 20 | 2.6 | 0.0 | 0.00 | 0.00 | 0.00 | 81 | 1022.0 |
| 20260507042811 | 51 | 20 | 2.6 | 0.0 | 0.00 | 0.00 | 0.00 | 81 | 1022.0 |
| 20260507041811 | 51 | 20 | 2.6 | 0.0 | 0.00 | 0.00 | 0.00 | 80 | 1022.0 |
| 20260507040810 | 50 | 20 | 2.6 | 0.0 | 0.00 | 0.00 | 0.00 | 84 | 1022.0 |
| 20260507035809 | 52 | 70 | 3.5 | 0.0 | 0.00 | 0.00 | 0.00 | 71 | 1022.0 |
| 20260507034809 | 52 | 70 | 3.5 | 0.0 | 0.00 | 0.00 | 0.00 | 71 | 1022.0 |
| 20260507033808 | 52 | 70 | 3.5 | 0.0 | 0.00 | 0.00 | 0.00 | 71 | 1022.0 |
| 20260507032808 | 52 | 70 | 3.5 | 0.0 | 0.00 | 0.00 | 0.00 | 71 | 1022.0 |
| 20260507031807 | 52 | 70 | 3.5 | 0.0 | 0.00 | 0.00 | 0.00 | 71 | 1022.0 |
| 20260507030807 | 53 | 70 | 3.5 | 0.0 | 0.00 | 0.00 | 0.00 | 71 | 1022.0 |
| 20260507025806 | 57 | 110 | 3.5 | 0.0 | 0.00 | 0.00 | 0.00 | 58 | 1022.0 |
| 20260507024806 | 57 | 110 | 3.5 | 0.0 | 0.00 | 0.00 | 0.00 | 58 | 1022.0 |
| 20260507023805 | 57 | 110 | 3.5 | 0.0 | 0.00 | 0.00 | 0.00 | 58 | 1022.0 |
| 20260507022804 | 57 | 110 | 3.5 | 0.0 | 0.00 | 0.00 | 0.00 | 58 | 1021.0 |
| 20260507021804 | 57 | 110 | 3.5 | 0.0 | 0.00 | 0.00 | 0.00 | 58 | 1021.0 |
| 20260507020803 | 57 | 110 | 3.5 | 0.0 | 0.00 | 0.00 | 0.00 | 58 | 1021.0 |
| 20260507015803 | 57 | 130 | 7.0 | 0.0 | 0.00 | 0.00 | 0.00 | 63 | 1022.0 |
| 20260507014802 | 57 | 130 | 7.0 | 0.0 | 0.00 | 0.00 | 0.00 | 63 | 1022.0 |
| 20260507013801 | 57 | 130 | 7.0 | 0.0 | 0.00 | 0.00 | 0.00 | 63 | 1021.0 |
| 20260507012801 | 57 | 130 | 7.0 | 0.0 | 0.00 | 0.00 | 0.00 | 63 | 1020.0 |
| 20260507011800 | 57 | 130 | 7.0 | 0.0 | 0.00 | 0.00 | 0.00 | 63 | 1020.0 |
| 20260507010759 | 57 | 130 | 7.0 | 0.0 | 0.00 | 0.00 | 0.00 | 63 | 1020.0 |
| 20260507005759 | 60 | 120 | 4.3 | 0.0 | 0.00 | 0.00 | 0.00 | 51 | 1021.0 |
| 20260507004758 | 60 | 120 | 4.3 | 0.0 | 0.00 | 0.00 | 0.00 | 51 | 1021.0 |
| 20260507003758 | 60 | 120 | 4.3 | 0.0 | 0.00 | 0.00 | 0.00 | 51 | 1020.0 |
| 20260507002757 | 60 | 120 | 4.3 | 0.0 | 0.00 | 0.00 | 0.00 | 51 | 1018.0 |
| 20260507001757 | 60 | 120 | 4.3 | 0.0 | 0.00 | 0.00 | 0.00 | 51 | 1018.0 |
| 20260507000756 | 60 | 120 | 4.3 | 0.0 | 0.00 | 0.00 | 0.00 | 51 | 1018.0 |
| 20260506235755 | 62 | 130 | 7.8 | 0.0 | 0.00 | 0.00 | 0.00 | 48 | 1019.0 |
| 20260506234755 | 62 | 130 | 7.8 | 0.0 | 0.00 | 0.00 | 0.00 | 48 | 1019.0 |
| 20260506233754 | 62 | 130 | 7.8 | 0.0 | 0.00 | 0.00 | 0.00 | 48 | 1018.0 |
| 20260506232754 | 58 | 138 | 3.5 | 4.3 | 0.00 | 0.00 | 0.00 | 85 | 1017.0 |
| 20260506231753 | 58 | 138 | 3.5 | 4.3 | 0.00 | 0.00 | 0.00 | 85 | 1017.0 |
| 20260506230752 | 58 | 138 | 3.5 | 4.3 | 0.00 | 0.00 | 0.00 | 85 | 1017.0 |
| 20260506225752 | 58 | 138 | 3.5 | 4.3 | 0.00 | 0.00 | 0.00 | 85 | 1017.0 |
| 20260506224751 | 58 | 138 | 3.5 | 4.3 | 0.00 | 0.00 | 0.00 | 85 | 1017.0 |
| 20260506223751 | 58 | 138 | 3.5 | 4.3 | 0.00 | 0.00 | 0.00 | 85 | 1016.0 |
| 20260506222750 | 61 | 151 | 4.3 | 7.0 | 0.00 | 0.00 | 0.00 | 85 | 1015.0 |
| 20260506221749 | 59 | 151 | 5.2 | 7.0 | 0.00 | 0.00 | 0.00 | 85 | 1015.0 |
| 20260506220748 | 61 | 151 | 4.3 | 7.0 | 0.00 | 0.00 | 0.00 | 85 | 1015.0 |
| 20260506215748 | 59 | 151 | 5.2 | 7.0 | 0.00 | 0.00 | 0.00 | 85 | 1015.0 |
| 20260506214747 | 61 | 151 | 4.3 | 7.0 | 0.00 | 0.00 | 0.00 | 85 | 1015.0 |
| 20260506213746 | 59 | 151 | 5.2 | 7.0 | 0.00 | 0.00 | 0.00 | 85 | 1015.0 |
| 20260506212746 | 62 | 153 | 4.3 | 6.1 | 0.00 | 0.00 | 0.00 | 85 | 1014.0 |
| 20260506211745 | 61 | 153 | 4.3 | 6.1 | 0.00 | 0.00 | 0.00 | 85 | 1014.0 |
| 20260506210744 | 61 | 153 | 4.3 | 6.1 | 0.00 | 0.00 | 0.00 | 85 | 1014.0 |
| 20260506205744 | 59 | 153 | 5.2 | 6.1 | 0.00 | 0.00 | 0.00 | 85 | 1014.0 |
| 20260506204743 | 63 | 159 | 4.3 | 7.0 | 0.00 | 0.00 | 0.00 | 85 | 1014.0 |
| 20260506203743 | 61 | 159 | 4.3 | 7.0 | 0.00 | 0.00 | 0.00 | 85 | 1014.0 |
| 20260506202742 | 59 | 159 | 5.2 | 7.0 | 0.00 | 0.00 | 0.00 | 85 | 1014.0 |
| 20260506201742 | 62 | 159 | 4.3 | 7.0 | 0.00 | 0.00 | 0.00 | 84 | 1014.0 |
| 20260506200741 | 62 | 159 | 4.3 | 7.0 | 0.00 | 0.00 | 0.00 | 84 | 1014.0 |
| 20260506195741 | 60 | 159 | 5.2 | 7.0 | 0.00 | 0.00 | 0.00 | 84 | 1014.0 |
| 20260506194740 | 63 | 159 | 4.3 | 7.0 | 0.00 | 0.00 | 0.00 | 79 | 1014.0 |
| 20260506193739 | 61 | 159 | 5.2 | 7.0 | 0.00 | 0.00 | 0.00 | 80 | 1014.0 |
| 20260506192739 | 64 | 120 | 10.4 | 0.0 | 0.00 | 0.00 | 0.00 | 80 | 1015.0 |